Wetbulb
72.16 72.37 72.10 70.44 69.96 69.75 69.43 69.65 69.72 69.94 70.26 70.24 70.03 69.57 69.73 70.29 70.36 70.68 69.99 69.09 68.18 67.57 66.75 66.09 65.83 65.56 65.32 64.85 64.53 65.28 68.78 70.88
71.70 71.92 72.45 72.81 72.46 68.81 68.61 68.76 68.85 69.14 69.41 69.28 68.42 68.55 69.14 69.36 69.42 69.90 69.46 68.74 68.00 67.40 66.47 65.64 65.08 64.70 64.68 64.44 64.47 65.56 69.05 70.61
69.73 71.48 72.00 71.94 72.29 71.49 69.33 69.08 68.94 68.79 69.35 68.47 67.86 70.96 70.75 70.47 68.87 68.94 69.26 68.42 67.71 67.30 66.45 65.55 64.63 63.72 63.85 64.01 63.48 68.99 69.82 71.01
68.66 70.20 70.30 70.44 70.30 70.99 72.20 72.07 71.97 72.05 71.75 71.56 71.11 71.32 71.00 69.81 68.83 68.38 68.89 68.46 67.94 67.47 66.79 65.79 65.68 68.22 67.46 63.63 67.01 68.11 70.24 70.81
67.74 69.23 69.44 69.54 69.33 69.67 70.00 70.61 70.49 71.32 72.00 71.36 71.53 70.77 70.66 70.17 70.10 69.75 70.40 69.04 70.37 69.39 69.38 69.59 67.62 68.26 67.71 67.20 66.98 66.95 69.96 70.42
67.03 67.94 68.36 68.47 69.37 68.75 69.08 68.98 69.16 68.86 70.01 69.31 69.73 69.78 69.98 69.63 69.16 69.49 69.68 69.73 69.75 69.98 70.31 70.02 68.80 67.99 67.04 66.58 65.66 66.71 67.35 69.04
66.32 67.19 67.35 67.55 67.69 67.67 67.77 68.48 68.08 68.21 68.45 68.21 68.28 69.54 69.42 69.29 69.22 68.73 68.74 68.92 68.67 69.51 69.71 69.45 68.81 68.13 67.53 65.96 65.93 65.73 65.99 66.96
67.61 65.92 66.95 67.06 67.02 67.36 67.09 67.42 67.33 67.50 67.66 67.48 69.77 70.27 69.55 68.74 68.49 68.04 68.14 68.75 68.10 67.62 69.68 69.39 68.87 68.41 67.51 66.71 65.33 65.84 65.54 65.78
67.38 67.42 68.56 67.60 66.80 66.67 66.01 66.11 66.36 65.87 67.53 69.49 70.06 69.83 69.10 68.41 68.12 67.54 68.12 68.93 68.69 69.49 69.35 69.00 68.48 68.37 67.99 67.72 66.65 65.14 64.87 64.75
67.91 67.60 67.65 67.91 67.84 67.60 67.32 67.65 68.19 68.40 68.64 69.10 69.19 68.89 68.58 68.02 67.66 67.42 68.31 69.16 69.22 69.30 69.20 68.33 68.35 68.48 68.39 65.93 67.53 66.68 65.06 64.06
68.22 68.34 67.09 67.59 68.04 67.98 67.80 68.02 67.80 67.89 68.13 67.80 67.87 67.99 67.98 68.05 67.69 67.68 68.18 67.95 66.69 66.61 65.96 65.84 65.82 66.32 67.34 67.48 65.54 63.84 65.21 63.22
68.64 68.66 68.00 67.88 68.20 67.77 67.21 66.12 66.77 67.52 67.16 67.31 67.53 67.52 67.83 67.87 67.84 68.22 68.22 66.67 66.59 67.19 67.53 66.26 65.77 67.19 65.40 64.59 65.43 62.97 62.62 63.60
67.95 67.66 68.09 67.02 66.30 65.46 65.86 65.56 66.03 66.36 67.00 67.38 67.42 67.51 67.76 68.25 68.59 68.07 67.00 67.41 67.77 66.79 67.51 67.78 65.83 62.76 62.30 63.64 61.97 63.25 62.75 61.06
67.50 67.69 67.58 67.55 67.64 67.27 66.68 66.78 66.24 66.65 67.40 67.44 68.08 68.21 68.85 68.73 68.54 68.39 67.43 67.21 66.41 65.77 65.34 64.19 63.25 62.26 61.74 56.60 56.31 60.98 63.56 63.16
67.27 67.52 67.57 67.68 67.64 67.07 67.03 67.26 66.26 66.56 67.59 67.70 68.89 69.60 69.47 68.13 67.33 66.66 66.16 66.32 65.78 64.86 64.30 63.36 62.74 61.19 60.84 60.12 55.50 57.36 58.14 61.92
67.66 67.89 67.69 67.48 67.56 66.12 65.50 65.40 64.06 66.05 66.63 67.31 66.66 67.17 65.49 65.42 65.20 64.54 64.85 63.53 63.23 62.80 63.37 62.86 62.01 59.98 62.11 62.24 61.18 60.20 55.67 54.54
67.57 67.65 67.45 67.59 67.23 67.14 66.75 66.70 66.71 65.20 64.22 63.18 62.95 62.57 62.63 62.09 62.83 62.36 61.94 62.37 61.44 63.66 63.38 62.83 62.47 61.60 58.34 57.47 57.64 57.48 58.09 54.70
66.55 66.43 66.39 67.18 66.94 67.51 67.23 65.91 63.01 62.52 60.80 60.13 60.31 58.60 59.44 61.04 61.31 60.90 61.10 61.06 60.65 60.51 59.68 59.51 59.74 58.88 57.90 57.03 54.47 53.33 53.26 52.44
65.40 65.53 64.86 65.19 65.39 65.98 66.96 63.88 63.38 63.08 60.95 58.26 58.68 58.50 59.33 59.05 58.73 57.17 56.07 55.95 55.75 55.89 54.77 54.06 54.45 53.94 53.77 54.68 54.90 53.96 52.49 51.76
63.16 63.82 63.34 63.72 63.00 63.30 62.39 61.24 60.59 57.85 56.10 57.42 56.95 58.09 57.45 56.04 54.91 54.09 53.00 52.62 52.53 52.28 51.53 50.64 50.33 50.11 49.45 49.24 50.30 49.27 48.94 47.74
MSLP
1012.51 1013.08 1013.68 1014.03 1014.19 1014.42 1014.94 1015.46 1015.81 1016.24 1016.57 1016.89 1017.11 1017.46 1017.88 1018.25 1018.56 1018.70 1018.73 1019.05 1019.39 1019.74 1020.07 1020.28 1020.47 1020.54 1020.45 1020.38 1020.38 1020.35 1020.03 1019.95
1012.52 1012.93 1013.22 1013.83 1014.49 1014.53 1015.05 1015.45 1015.66 1016.21 1016.67 1016.82 1017.10 1017.59 1017.98 1018.26 1018.52 1018.68 1018.70 1019.07 1019.44 1019.69 1019.93 1020.11 1020.40 1020.61 1020.57 1020.43 1020.37 1020.22 1019.77 1019.84
1012.70 1012.72 1013.12 1013.71 1014.35 1014.69 1015.15 1015.57 1015.62 1016.21 1016.71 1016.84 1017.17 1017.27 1017.72 1018.09 1018.22 1018.50 1018.67 1019.09 1019.41 1019.66 1019.87 1020.10 1020.28 1020.43 1020.50 1020.52 1020.51 1019.87 1019.80 1019.87
1012.75 1012.94 1013.12 1013.67 1014.18 1014.57 1015.08 1015.34 1015.49 1015.89 1016.22 1016.68 1016.85 1017.06 1017.38 1017.68 1018.20 1018.49 1018.63 1018.96 1019.31 1019.64 1019.87 1020.22 1020.37 1020.13 1020.24 1020.55 1020.11 1020.08 1019.92 1019.97
1012.60 1012.93 1013.14 1013.65 1014.00 1014.34 1014.90 1014.97 1015.32 1015.78 1015.90 1016.39 1016.81 1017.10 1017.48 1017.82 1018.18 1018.42 1018.60 1018.97 1018.98 1019.48 1019.64 1019.64 1019.87 1019.98 1020.04 1020.20 1020.24 1020.14 1019.88 1019.86
1012.24 1012.68 1013.10 1013.62 1013.81 1014.22 1014.49 1014.55 1015.12 1015.55 1015.85 1016.35 1016.82 1017.00 1017.46 1017.82 1018.05 1018.20 1018.44 1018.63 1018.90 1019.20 1019.44 1019.72 1019.81 1019.92 1019.99 1019.97 1020.01 1019.91 1019.82 1019.79
1011.96 1012.42 1012.76 1013.28 1013.83 1014.06 1014.23 1014.55 1014.96 1015.32 1015.78 1016.33 1016.66 1016.76 1017.32 1017.67 1017.97 1018.18 1018.34 1018.56 1018.93 1019.03 1019.20 1019.43 1019.55 1019.62 1019.69 1019.77 1019.77 1019.78 1019.85 1019.72
1011.43 1012.02 1012.33 1012.85 1013.39 1013.71 1014.11 1014.51 1015.02 1015.32 1015.68 1016.04 1016.37 1016.64 1017.14 1017.53 1017.62 1017.79 1017.95 1018.17 1018.76 1019.20 1018.94 1019.14 1019.30 1019.41 1019.37 1019.52 1019.49 1019.46 1019.49 1019.60
1010.51 1011.34 1012.05 1012.51 1012.89 1013.29 1013.82 1014.18 1014.66 1015.16 1015.44 1015.68 1015.97 1016.44 1016.91 1017.10 1017.34 1017.40 1017.40 1017.73 1018.28 1018.48 1018.69 1018.92 1019.05 1018.98 1019.03 1019.02 1019.15 1019.32 1019.31 1019.39
1009.90 1010.63 1011.35 1011.96 1012.27 1012.78 1013.22 1013.68 1014.14 1014.38 1014.73 1015.21 1015.68 1016.25 1016.58 1016.77 1016.91 1016.95 1017.03 1017.39 1017.78 1018.00 1018.34 1018.52 1018.64 1018.66 1018.57 1018.80 1018.62 1018.78 1018.83 1019.01
1008.98 1009.85 1010.64 1011.39 1011.86 1012.31 1012.73 1013.00 1013.34 1013.78 1014.40 1014.89 1015.45 1015.79 1016.12 1016.31 1016.37 1016.51 1016.89 1017.09 1017.74 1018.02 1018.17 1018.44 1018.48 1018.44 1018.33 1018.26 1018.44 1018.54 1018.44 1018.57
1008.37 1009.25 1009.97 1010.66 1011.41 1011.89 1012.41 1012.75 1013.22 1013.54 1013.89 1014.37 1014.93 1015.19 1015.43 1015.80 1015.96 1016.10 1016.51 1016.95 1017.27 1017.72 1018.06 1018.31 1018.34 1018.20 1018.23 1018.16 1018.01 1018.05 1018.03 1017.99
1007.41 1008.21 1009.05 1010.07 1010.67 1011.20 1011.73 1011.90 1012.53 1013.15 1013.43 1013.77 1014.33 1014.67 1015.00 1015.26 1015.39 1015.62 1016.19 1016.54 1016.92 1017.46 1017.69 1017.73 1018.02 1018.35 1018.33 1017.79 1017.59 1017.46 1017.46 1017.43
1006.50 1007.15 1008.08 1008.88 1009.45 1010.10 1010.69 1011.19 1011.91 1012.39 1012.92 1013.47 1013.92 1014.22 1014.52 1014.78 1015.03 1015.49 1016.03 1016.45 1016.87 1017.26 1017.53 1017.85 1018.08 1018.31 1018.36 1018.50 1018.01 1017.29 1017.06 1017.21
1005.29 1005.95 1006.86 1008.01 1008.71 1009.68 1010.37 1011.04 1011.84 1012.24 1012.64 1013.13 1013.54 1013.66 1014.02 1014.54 1014.98 1015.36 1015.85 1016.35 1016.69 1017.05 1017.41 1017.62 1017.97 1018.47 1018.60 1018.65 1018.65 1017.77 1017.85 1017.50
1004.30 1005.19 1006.02 1007.09 1008.02 1008.60 1009.25 1009.69 1010.77 1011.33 1012.04 1012.90 1013.38 1013.62 1014.12 1014.46 1014.94 1015.53 1015.95 1016.39 1016.92 1017.29 1017.43 1017.74 1018.02 1018.36 1018.55 1018.53 1018.78 1018.81 1018.36 1017.71
1003.43 1004.49 1005.44 1006.28 1007.01 1007.45 1008.31 1009.22 1010.34 1011.25 1012.15 1013.02 1013.42 1014.18 1014.46 1014.90 1015.30 1015.67 1016.26 1016.61 1017.18 1017.37 1017.67 1017.89 1018.19 1018.36 1018.73 1018.95 1018.99 1018.88 1018.73 1018.54
1003.33 1003.93 1004.83 1005.74 1006.43 1007.03 1007.66 1008.77 1009.77 1010.80 1011.95 1012.78 1013.65 1014.35 1014.96 1015.14 1015.69 1015.85 1016.44 1016.95 1017.27 1017.80 1018.13 1018.46 1018.66 1018.92 1019.12 1019.28 1019.55 1019.49 1019.18 1019.19
1002.91 1003.59 1004.48 1005.44 1006.21 1006.86 1007.42 1008.27 1009.20 1010.23 1011.37 1012.50 1013.44 1014.04 1015.11 1015.66 1016.02 1016.59 1017.08 1017.45 1017.76 1018.16 1018.72 1019.17 1019.41 1019.71 1019.82 1019.81 1019.96 1020.03 1020.16 1020.00
1002.62 1003.29 1004.32 1005.34 1006.15 1006.87 1007.72 1008.82 1009.52 1010.68 1011.63 1012.38 1013.53 1013.88 1015.06 1015.80 1016.42 1016.95 1017.49 1017.97 1018.44 1018.85 1019.33 1019.82 1020.03 1020.16 1020.28 1020.50 1020.57 1020.91 1020.92 1020.94
Wind_Speed
15 14 13 11 13 14 13 13 13 12 12 13 13 13 12 12 11 10 11 10 10 10 9 8 6 4 3 3 4 4 4 3
13 14 15 13 12 12 11 12 13 12 12 12 12 11 11 11 11 11 11 9 9 9 9 8 7 4 2 1 2 2 3 3
12 13 14 12 12 11 12 12 12 12 11 11 12 10 12 13 9 11 11 10 8 7 7 7 6 4 3 1 3 1 2 2
12 12 13 12 10 11 12 12 11 11 11 12 9 10 9 9 9 10 11 10 8 6 5 4 4 1 1 2 1 2 2 2
12 13 12 13 10 7 6 6 7 8 12 11 9 7 7 6 5 6 6 7 5 5 5 3 3 1 1 1 1 2 2 2
14 14 11 13 8 9 9 8 6 7 9 11 7 6 7 6 5 6 5 4 5 4 2 2 3 2 2 3 3 3 3 3
17 16 14 11 11 9 8 7 8 9 7 8 7 7 7 6 5 5 4 4 4 3 3 3 3 3 3 4 5 5 5 4
18 17 14 13 13 12 8 7 8 8 6 9 10 7 7 7 6 6 6 5 4 3 3 3 3 4 5 5 5 6 6 6
20 19 17 17 16 12 10 8 8 8 8 11 11 9 9 8 6 6 6 5 7 5 5 4 5 5 7 6 5 6 7 7
19 15 18 18 14 12 9 9 8 8 8 8 11 11 10 8 6 6 5 4 4 4 4 5 6 6 6 5 5 6 8 8
19 18 17 17 15 11 10 11 9 8 7 7 11 11 10 8 7 5 6 5 5 5 5 5 4 5 6 6 5 5 8 6
17 15 17 17 10 10 8 6 7 7 8 8 11 9 11 9 7 7 7 5 5 5 6 3 4 5 5 6 7 6 5 7
20 19 18 13 10 10 9 10 9 8 8 12 11 9 10 10 7 7 6 7 5 5 4 6 4 2 4 5 5 6 7 6
20 20 20 16 12 11 6 8 8 9 8 8 9 10 10 9 8 6 6 5 6 5 5 2 2 3 2 2 3 3 3 3
21 22 20 17 16 11 7 9 5 7 8 7 8 9 8 7 6 4 5 4 4 5 4 4 3 1 2 1 1 3 4 3
20 20 20 18 20 15 16 12 10 6 6 6 6 7 6 6 6 5 5 4 6 4 3 4 2 2 2 2 2 2 2 5
17 18 18 18 20 18 15 14 8 8 7 10 9 7 8 7 8 9 7 5 4 6 5 4 3 2 1 1 2 4 5 4
16 18 18 18 17 17 18 17 14 12 10 9 8 6 6 9 9 9 8 8 7 6 7 6 5 4 2 2 2 2 4 5
14 16 16 14 15 15 18 17 16 16 15 10 11 9 7 9 10 9 8 9 9 8 8 7 5 4 4 2 2 2 3 4
15 16 15 14 14 13 13 14 9 9 9 11 8 10 10 11 11 11 11 10 9 8 6 5 5 5 6 5 3 3 3 3
Wind_Direction
158 160 153 149 151 150 151 150 146 145 142 143 137 134 134 136 136 133 129 129 130 133 130 120 112 109 103 52 11 352 288 280
158 160 160 165 169 150 149 152 150 147 152 145 137 138 142 144 146 149 144 144 147 146 140 131 128 127 112 51 353 265 256 243
170 166 163 165 173 161 153 162 152 151 154 147 148 160 164 160 160 159 154 157 157 152 141 141 142 138 119 15 288 300 231 212
177 176 169 169 175 168 177 171 170 175 173 168 175 170 171 172 169 167 164 166 164 163 156 151 187 203 140 207 271 296 221 221
183 180 179 177 182 168 179 177 171 181 176 176 182 173 168 176 172 175 175 177 178 188 189 208 201 216 205 310 313 266 248 224
178 184 175 187 181 188 188 180 174 181 180 176 175 171 177 183 187 177 178 177 182 198 213 257 261 244 245 246 225 234 233 235
187 185 181 182 187 192 188 187 186 184 170 175 177 176 184 187 183 181 178 179 185 205 212 243 267 267 254 251 243 235 241 245
189 192 183 182 191 184 184 181 189 186 171 184 184 180 186 192 182 187 185 180 173 205 228 260 279 288 275 256 248 240 241 240
194 192 193 190 188 180 183 184 183 184 187 185 184 189 195 189 189 196 197 186 186 205 211 230 253 249 258 259 258 249 249 254
193 190 193 194 188 187 186 184 189 192 188 185 189 199 198 194 197 206 198 196 212 220 223 228 243 252 266 262 256 249 246 243
196 193 191 193 191 185 186 188 192 189 188 188 194 197 200 202 205 208 197 190 193 205 218 218 235 255 272 274 264 249 255 250
191 191 187 189 182 182 187 185 194 193 194 197 200 200 197 201 208 205 199 196 211 217 235 220 251 273 285 281 275 261 244 243
192 188 189 179 178 179 193 197 191 195 196 196 201 197 200 204 214 208 187 206 210 190 216 241 229 223 271 268 279 265 260 257
192 194 186 186 180 184 192 181 194 196 191 194 198 200 201 206 208 209 194 196 184 172 173 173 209 193 266 44 308 285 271 316
195 194 188 186 180 172 147 152 150 181 186 176 192 195 192 187 168 153 162 168 178 169 172 177 189 113 208 175 216 287 328 331
197 190 186 185 180 182 180 182 179 182 154 145 143 126 113 118 117 110 115 106 109 98 107 104 118 121 170 183 202 240 288 293
188 185 184 184 184 185 178 184 162 142 128 134 112 103 101 100 120 120 112 102 105 116 117 103 86 119 38 34 269 282 264 270
182 181 186 185 185 186 181 171 150 145 146 137 129 114 108 110 116 108 109 109 98 94 85 76 72 83 77 57 345 320 309 294
178 176 179 176 175 180 179 166 159 155 153 144 140 128 130 122 115 110 102 98 96 94 88 81 73 82 57 75 39 16 336 307
176 176 170 167 165 161 154 152 148 140 145 142 150 133 131 126 117 113 110 106 100 97 92 87 83 81 75 57 51 40 17 352